This is the latest recevied weather packets stored in our database for station/object KD5UMO-1. If no packets are shown the sender has not sent any weather packets the latest 10 day(s).
| Time | Temp. | Humidity | Pressure | Rain* | Wind** | Luminosity | Snow |
|---|---|---|---|---|---|---|---|
| 1778009092 | 29.44° C | 63% | 1004.8 hPa | 0 mm | - | 905 W/m² | - |
| 1778008788 | 30° C | 63% | 1004.8 hPa | 0 mm | - | 791 W/m² | - |
| 1778008487 | 30° C | 63% | 1004.9 hPa | 0 mm | - | 950 W/m² | - |
| 1778008184 | 30° C | 63% | 1004.8 hPa | 0 mm | - | 827 W/m² | - |
| 1778007879 | 30° C | 62% | 1004.8 hPa | 0 mm | - | 679 W/m² | - |
| 1778007574 | 29.44° C | 65% | 1005 hPa | 0 mm | - | 745 W/m² | - |
| 1778007272 | 28.89° C | 66% | 1005 hPa | 0 mm | - | 859 W/m² | - |
| 1778006968 | 28.89° C | 65% | 1005 hPa | 0 mm | - | 542 W/m² | - |
| 1778006665 | 28.89° C | 66% | 1005.1 hPa | 0 mm | - | 492 W/m² | - |
| 1778006362 | 28.33° C | 66% | 1005 hPa | 0 mm | - | 482 W/m² | - |
| 1778006059 | 28.89° C | 66% | 1005.2 hPa | 0 mm | - | 471 W/m² | - |
| 1778005756 | 28.89° C | 66% | 1005 hPa | 0 mm | - | 402 W/m² | - |
| 1778005452 | 28.89° C | 66% | 1005 hPa | 0 mm | - | 471 W/m² | - |
| 1778005149 | 28.89° C | 66% | 1005.1 hPa | 0 mm | - | 495 W/m² | - |
| 1778004846 | 28.33° C | 67% | 1005.3 hPa | 0 mm | - | 392 W/m² | - |
| 1778004543 | 28.33° C | 67% | 1005.1 hPa | 0 mm | - | 441 W/m² | - |
| 1778004240 | 28.89° C | 66% | 1005.2 hPa | 0 mm | - | 452 W/m² | - |
| 1778003936 | 28.33° C | 68% | 1005 hPa | 0 mm | - | 827 W/m² | - |
| 1778003632 | 27.78° C | 68% | 1005 hPa | 0 mm | - | 728 W/m² | - |
| 1778003329 | 28.33° C | 68% | 1005 hPa | 0 mm | - | 618 W/m² | - |
| 1778003027 | 28.33° C | 67% | 1005.1 hPa | 0 mm | - | 550 W/m² | - |
| 1778002722 | 27.78° C | 69% | 1005.3 hPa | 0 mm | - | 493 W/m² | - |
| 1778002414 | 27.78° C | 69% | 1005.1 hPa | 0 mm | - | 536 W/m² | - |
| 1778002111 | 27.22° C | 69% | 1005.3 hPa | 0 mm | - | 667 W/m² | - |
| 1778001809 | 27.22° C | 69% | 1005.4 hPa | 0 mm | - | 538 W/m² | - |
* Rain latest hour (hover to see other rain measurements)
** Current wind speed in m/s (hover to see current wind gust speed)